Miscellaneous Local Product
Issued by NWS Hastings, NE

Home | Current Version | Previous Version | Graphics & Text | Print | Product List | Glossary Off
Versions: 1 2 3 4 5 6 7 8 9 10 11 12 13 14 15 16 17 18 19 20 21 22 23 24 25 26 27 28 29 30 31 32 33 34 35 36 37 38 39 40 41 42 43 44 45 46 47 48 49 50

000
AXUS43 KGID 030302
MISGRI

GID CWA HOURLY WEATHER ROUNDUP
NATIONAL WEATHER SERVICE HASTINGS NE
1000 PM CDT SUN AUG 02 2015

NOTE: "FAIR" INDICATES FEW OR NO CLOUDS BELOW 12,000 FEET WITH NO
SIGNIFICANT WEATHER AND/OR OBSTRUCTIONS TO VISIBILITY.

...SOUTH CENTRAL NEBRASKA...

CITY           SKY/WX    TMP DP  RH WIND       PRES   REMARKS
GRAND ISLAND   PTCLDY    67  62  84 N7        29.89R
HASTINGS       MOCLDY    71  60  68 E8        29.89R
KEARNEY        MOCLDY    77  54  44 SW8       29.89R
ORD            CLEAR     68  64  87 N6        29.90R
YORK           PTCLDY    73  66  78 NW7       29.87S
AURORA         PTCLDY    69  64  83 N7        29.88R
LEXINGTON      PTCLDY    70  57  63 S5        29.91S
HOLDREGE       PTCLDY    71  56  59 SW3       29.91R
HEBRON         MOCLDY    77  70  79 CALM      29.85R

...NEBRASKA PANHANDLE...

CITY           SKY/WX    TMP DP  RH WIND       PRES   REMARKS
CHADRON        CLEAR     74  57  55 NE10      29.96R
ALLIANCE       MOCLDY    69  58  67 SE5       29.98R
SCOTTSBLUFF    MOCLDY    72  61  68 MISG      29.97R
SIDNEY         MOCLDY    73  54  51 SE10      30.04R

...WESTERN AND NORTH CENTRAL NEBRASKA...

CITY           SKY/WX    TMP DP  RH WIND       PRES   REMARKS
VALENTINE      NOT AVBL
AINSWORTH      CLEAR     71  64  79 NE5       29.97R
ONEILL         PTCLDY    73  65  75 N6        29.95R
BROKEN BOW     PTCLDY    66  61  84 N5        29.92R
IMPERIAL       PTCLDY    76  54  46 SE10      29.96R
NORTH PLATTE   PTCLDY    66  61  84 E6        29.95R
MCCOOK         PTCLDY    74  57  55 SE7       29.94R

...EASTERN NEBRASKA...

CITY           SKY/WX    TMP DP  RH WIND       PRES   REMARKS
NORFOLK        PTCLDY    77  69  76 CALM      29.91R
TEKAMAH        PTCLDY    75  73  93 NW6       29.85R
COLUMBUS       MOCLDY    73  66  78 CALM      29.87R
ALBION         PTCLDY    76  66  71 NE7       29.90R
OMAHA EPPLEY   TSTM      80  76  87 N10       29.83R
MILLARD        CLOUDY    84  74  71 N3        29.83R HX  92
LINCOLN        MOCLDY    80  69  69 W5        29.83R
NEBRASKA CITY  CLOUDY    80  71  74 CALM      29.84R
BEATRICE       MOCLDY    81  75  82 CALM      29.84R
FALLS CITY     CLOUDY    82  73  74 S7        29.82R

...NORTHERN KANSAS...

CITY           SKY/WX    TMP DP  RH WIND       PRES   REMARKS
GOODLAND       MOCLDY    76  56  49 E18G29    30.02R
HILL CITY      CLOUDY    82  57  42 VRB5      29.95R
NORTON         CLEAR     70  54  56 W5        29.91S
PHILLIPSBURG   CLEAR     79  59  50 CALM      29.89R
SMITH CENTER   CLEAR     75  61  60 SW9       29.89R
HAYS           MOCLDY    82  64  54 S8        29.93R THUNDER
RUSSELL        MOCLDY    83  69  62 S10       29.89S
CONCORDIA      MOCLDY    82  68  62 S12       29.86R
SALINA         MOCLDY    84  70  62 S8        29.86R
TOPEKA         PTCLDY    83  72  69 S5        29.85R



USA.gov is the U.S. government's official web portal to all federal, state and local government web resources and services.